Dublin, Ireland

5:35 PM IST on April 26, 2017 (GMT +0100)
Dublin International

Weather History for EIDW - January, 2013

Change the Weather History Date:

Wednesday, January 16, 2013

  Actual Average Record
Temperature  
Mean Temperature 36 °F -  
Max Temperature 41 °F 46 °F 53 °F (2003)
Min Temperature 30 °F 36 °F 26 °F (2001)
Degree Days  
Heating Degree Days 30    
Moisture  
Dew Point 36 °F    
Average Humidity 87    
Maximum Humidity 93    
Minimum Humidity 73    
Precipitation  
Precipitation 0.16 in 0.08 in - ()
Sea Level Pressure  
Sea Level Pressure 29.80 in    
Wind  
Wind Speed 10 mph ()    
Max Wind Speed 17 mph    
Max Gust Speed -    
Visibility 6.4 miles    
Events Rain    
Averages and records for this station are not official NWS values.
T = Trace of Precipitation, MM = Missing Value Source: Averaged Metar Reports

Daily Weather History Graph

Daily Weather History Graph

Search for Another Location

Airport or City:

Trip Planner

Search our weather history database for the weather conditions in past years. The results will help you decide how hot, cold, wet, or windy it might be!

Date:

Astronomy

Jan. 16, 2013 Rise Set
Actual Time 8:31 AM GMT 4:38 PM GMT
Civil Twilight 7:50 AM GMT 5:19 PM GMT
Nautical Twilight 7:07 AM GMT 6:03 PM GMT
Astronomical Twilight 6:25 AM GMT 6:44 PM GMT
Moon 10:08 AM GMT (1/16) 11:13 PM GMT (1/16)
Length of Visible Light 9h 28m
Length of Day
8h 06m
Waxing Crescent, 26% of the Moon is Illuminated
Jan 16
Waxing Crescent
Jan 18
First Quarter
Jan 27
Full
Feb 3
Last Quarter
Feb 10
New

Hourly Weather History & Observations

Time (GMT) Temp. Windchill Dew Point Humidity Pressure Visibility Wind Dir Wind Speed Gust Speed Precip Events Conditions
12:00 AM 39 °F - 35 °F 81% 29.76 in 12 mi SE 11.2 mph - -   Partly Cloudy
12:00 AM 39.2 °F 32.5 °F 35.6 °F 87% 29.74 in 6.2 mi SE 10.4 mph - N/A   Mostly Cloudy
12:30 AM 39.2 °F 31.6 °F 35.6 °F 87% 29.74 in 6.2 mi SE 12.7 mph - N/A   Mostly Cloudy
1:00 AM 41.0 °F 33.9 °F 35.6 °F 81% 29.71 in 6.2 mi ESE 12.7 mph - N/A   Mostly Cloudy
1:30 AM 41.0 °F 35.2 °F 35.6 °F 81% 29.71 in 6.2 mi SE 9.2 mph - N/A   Mostly Cloudy
2:00 AM 41.0 °F 33.9 °F 35.6 °F 81% 29.71 in 6.2 mi SE 12.7 mph - N/A   Mostly Cloudy
2:30 AM 41.0 °F 32.5 °F 35.6 °F 81% 29.74 in 6.2 mi SE 17.3 mph - N/A   Mostly Cloudy
3:00 AM 41.0 °F 33.5 °F 35.6 °F 81% 29.74 in 6.2 mi SE 13.8 mph - N/A   Mostly Cloudy
3:30 AM 41.0 °F 33.1 °F 35.6 °F 81% 29.74 in 6.2 mi SE 15.0 mph - N/A   Mostly Cloudy
4:00 AM 41.0 °F 33.1 °F 33.8 °F 76% 29.74 in 6.2 mi SE 15.0 mph - N/A   Mostly Cloudy
4:30 AM 41.0 °F 33.1 °F 35.6 °F 81% 29.74 in 6.2 mi SE 15.0 mph - N/A   Mostly Cloudy
5:00 AM 39.2 °F 31.6 °F 35.6 °F 87% 29.74 in 6.2 mi SSE 12.7 mph - N/A   Mostly Cloudy
5:30 AM 39.2 °F 31.2 °F 33.8 °F 81% 29.74 in 6.2 mi SSE 13.8 mph - N/A   Mostly Cloudy
6:00 AM 39 °F - 33 °F 73% 29.76 in 12 mi SSE 13.4 mph - -   Partly Cloudy
6:00 AM 39.2 °F 31.2 °F 33.8 °F 81% 29.74 in 6.2 mi SSE 13.8 mph - N/A   Mostly Cloudy
6:30 AM 39.2 °F 32.0 °F 33.8 °F 81% 29.74 in 6.2 mi SSE 11.5 mph - N/A   Mostly Cloudy
7:00 AM 39.2 °F 32.5 °F 33.8 °F 81% 29.74 in 6.2 mi SSE 10.4 mph - N/A   Mostly Cloudy
7:30 AM 39.2 °F 32.0 °F 33.8 °F 81% 29.74 in 6.2 mi SSE 11.5 mph - N/A   Mostly Cloudy
8:00 AM 39.2 °F 32.5 °F 33.8 °F 81% 29.77 in 6.2 mi SSE 10.4 mph - N/A   Mostly Cloudy
8:30 AM 39.2 °F 31.2 °F 33.8 °F 81% 29.77 in 6.2 mi SE 13.8 mph - N/A   Mostly Cloudy
9:00 AM 39.2 °F 31.6 °F 33.8 °F 81% 29.77 in 6.2 mi SE 12.7 mph - N/A   Mostly Cloudy
10:00 AM 39.2 °F 32.5 °F 33.8 °F 81% 29.80 in 6.2 mi SSE 10.4 mph - N/A   Mostly Cloudy
10:30 AM 39.2 °F 33.0 °F 33.8 °F 81% 29.80 in 6.2 mi SSE 9.2 mph - N/A   Mostly Cloudy
11:00 AM 39.2 °F 33.0 °F 35.6 °F 87% 29.80 in 6.2 mi SSE 9.2 mph - N/A   Light Drizzle
11:30 AM 39.2 °F 34.2 °F 35.6 °F 87% 29.83 in 6.2 mi South 6.9 mph - N/A Rain Light Rain
12:00 PM 39 °F - 37 °F 88% 29.84 in 6 mi SSE 6.7 mph - - Rain Light Rain
12:00 PM 39.2 °F 34.2 °F 37.4 °F 93% 29.83 in 6.2 mi SSE 6.9 mph - N/A Rain Light Rain
12:30 PM 39.2 °F 34.2 °F 37.4 °F 93% 29.83 in 6.2 mi SSE 6.9 mph - N/A Rain Light Rain
1:00 PM 39.2 °F 34.2 °F 37.4 °F 93% 29.83 in 6.2 mi SSE 6.9 mph - N/A Rain Light Rain
1:30 PM 39.2 °F 33.6 °F 37.4 °F 93% 29.83 in 6.2 mi SSE 8.1 mph - N/A Rain Light Rain
2:00 PM 39.2 °F 33.6 °F 37.4 °F 93% 29.83 in 6.2 mi SSE 8.1 mph - N/A Rain Light Rain
2:30 PM 39.2 °F 33.0 °F 37.4 °F 93% 29.80 in 6.2 mi SSE 9.2 mph - N/A Rain Light Rain
3:00 PM 39.2 °F 32.5 °F 37.4 °F 93% 29.80 in 6.2 mi SSE 10.4 mph - N/A Rain Light Rain
3:30 PM 39.2 °F 32.0 °F 37.4 °F 93% 29.80 in 6.2 mi SSE 11.5 mph - N/A   Light Drizzle
4:00 PM 39.2 °F 32.5 °F 37.4 °F 93% 29.83 in 6.2 mi SSE 10.4 mph - N/A Rain Light Rain
4:30 PM 39.2 °F 32.5 °F 37.4 °F 93% 29.83 in 6.2 mi SSE 10.4 mph - N/A   Light Drizzle
5:00 PM 39.2 °F 33.0 °F 37.4 °F 93% 29.83 in 6.2 mi SE 9.2 mph - N/A   Light Drizzle
5:30 PM 39.2 °F 33.6 °F 37.4 °F 93% 29.83 in 6.2 mi SE 8.1 mph - N/A   Light Drizzle
6:00 PM 39 °F - 37 °F 92% 29.87 in 11 mi SE 8.9 mph - - Rain Light Drizzle
6:00 PM 39.2 °F 33.0 °F 37.4 °F 93% 29.86 in 6.2 mi SE 9.2 mph - N/A   Light Drizzle
6:30 PM 39.2 °F 33.6 °F 37.4 °F 93% 29.86 in 6.2 mi SSE 8.1 mph - N/A   Light Drizzle
7:00 PM 39.2 °F 33.0 °F 37.4 °F 93% 29.83 in 6.2 mi SSE 9.2 mph - N/A   Light Drizzle
7:30 PM 39.2 °F 33.6 °F 37.4 °F 93% 29.83 in 6.2 mi SE 8.1 mph - N/A   Mostly Cloudy
8:00 PM 39.2 °F 32.5 °F 37.4 °F 93% 29.83 in 6.2 mi SE 10.4 mph - N/A   Mostly Cloudy
8:30 PM 41.0 °F 33.9 °F 37.4 °F 87% 29.83 in 6.2 mi SE 12.7 mph - N/A   Mostly Cloudy
9:00 PM 41.0 °F 34.3 °F 39.2 °F 93% 29.83 in 6.2 mi SE 11.5 mph - N/A   Mostly Cloudy
9:30 PM 41.0 °F 33.9 °F 39.2 °F 93% 29.86 in 5.0 mi SE 12.7 mph - N/A   Light Drizzle
10:00 PM 41.0 °F 34.3 °F 39.2 °F 93% 29.86 in 5.0 mi SE 11.5 mph - N/A   Light Drizzle
10:30 PM 41.0 °F 33.9 °F 39.2 °F 93% 29.86 in 5.0 mi SE 12.7 mph - N/A   Light Drizzle
11:00 PM 41.0 °F 34.3 °F 39.2 °F 93% 29.86 in 6.2 mi SE 11.5 mph - N/A   Light Drizzle
11:30 PM 41.0 °F 33.5 °F 39.2 °F 93% 29.86 in 6.2 mi SE 13.8 mph - N/A   Light Drizzle